This demonstration page uses our WeatherBlox Daily Observations layout. Learn more.

Left ArrowRight Arrow

47.50024, -111.30081

Hourly Observations for April 6, 2016

Temp ( °F °C ) Dew Point ( °F °C ) Humidity (%) Winds ( mph kmh ) Pressure ( in mb ) Visibility ( mi km ) Precip ( " mm )
12:53 am 00:53 Clear 41 5 25 -3.9 53 53 SW 22 35 30.17 1022 10 16 0.00 0.00
1:53 am 01:53 Clear 40 4.4 25 -3.9 55 55 SW 20 31 30.17 1022 10 16 0.00 0.00
2:53 am 02:53 Clear 40 4.4 25 -3.9 55 55 SW 24 39 30.14 1021 10 16 0.00 0.00
3:53 am 03:53 Clear 41 5 26 -3.3 55 55 SW 23 37 30.13 1020 10 16 0.00 0.00
4:53 am 04:53 Clear 41 5 26 -3.3 55 55 SSW 18 30 30.11 1020 10 16 0.00 0.00
5:53 am 05:53 Clear 43 6.1 26 -3.3 51 51 SW 25 41 30.10 1019 10 16 0.00 0.00
6:53 am 06:53 Sunny 46 7.8 27 -2.8 47 47 WSW 26 43 30.12 1020 10 16 0.00 0.00
7:53 am 07:53 Sunny 45 7.2 27 -2.8 49 49 WSW 28 44 30.17 1022 10 16 0.00 0.00
8:53 am 08:53 Mostly Sunny 48 8.9 27 -2.8 44 44 SW 26 43 30.20 1023 10 16 0.00 0.00
9:53 am 09:53 Mostly Sunny 50 10 28 -2.2 43 43 SW 33 54 30.17 1022 10 16 0.00 0.00
10:53 am 10:53 Mostly Cloudy 52 11.1 27 -2.8 38 38 SW 37 59 30.16 1021 10 16 0.00 0.00
11:53 am 11:53 Mostly Sunny 57 13.9 29 -1.7 34 34 WSW 31 50 30.16 1021 10 16 0.00 0.00
12:53 pm 12:53 Sunny 58 14.4 28 -2.2 32 32 WSW 30 48 30.13 1020 10 16 0.00 0.00
1:53 pm 13:53 Mostly Cloudy 58 14.4 29 -1.7 33 33 SW 23 37 30.12 1020 10 16 0.00 0.00
2:53 pm 14:53 Partly Cloudy 62 16.7 30 -1.1 30 30 WNW 28 44 30.09 1019 10 16 0.00 0.00
3:53 pm 15:53 Sunny 62 16.7 29 -1.7 29 29 W 26 43 30.10 1019 10 16 0.00 0.00
4:53 pm 16:53 Sunny 63 17.2 27 -2.8 26 26 W 28 44 30.09 1019 10 16 0.00 0.00
5:53 pm 17:53 Sunny 61 16.1 26 -3.3 26 26 WNW 25 41 30.09 1019 10 16 0.00 0.00
6:53 pm 18:53 Sunny 60 15.6 28 -2.2 30 30 WNW 18 30 30.10 1019 10 16 0.00 0.00
7:53 pm 19:53 Sunny 54 12.2 29 -1.7 38 38 WNW 10 17 30.12 1020 10 16 0.00 0.00
8:53 pm 20:53 Clear 46 7.8 28 -2.2 50 50 WNW 7 11 30.16 1021 10 16 0.00 0.00
9:53 pm 21:53 Clear 43 6.1 28 -2.2 56 56 WSW 8 13 30.19 1022 10 16 0.00 0.00
10:53 pm 22:53 Clear 46 7.8 28 -2.2 50 50 WSW 10 17 30.19 1022 10 16 0.00 0.00
11:53 pm 23:53 Mostly Clear 41 5 27 -2.8 57 57 W 7 11 30.20 1023 10 16 0.00 0.00

Powered by AerisWeather